STARLINK-35410, 66024

Orbit data source: Space-Track

STARLINK-35410, 66024 is a payload satellite owned by SpaceX/Seattle (US) in LEO that was launched on Thu, 16 Oct 2025 UTC via an FALCON 9 launch vehicle from the Air Force Eastern Test Range (AFETR). Payload-class satellites include a variety of spacecraft equipped with specific instruments for various scientific and technological missions. These include communications satellites like Starlink; space stations such as the ISS; scientific satellites like the Hubble; Earth observation satellites from companies like Planet Labs, Umbra, and HawkEye 360; GPS; miniature CubeSats for education and research; and military/defense satellites.

Not visible in the next 10 days
Identifier
66024, 2025-232V
Orbit
LEO
Country
Flag of USUS
Related business
Manufacturer
SpaceX/Seattle
Mission
Operational spacecraft
Bus & Motor
STARLINK V2MO, Unknown motor
Mass
575 kg wet, ~530 kg dry
Launch date (UTC)
2025-10-16 (1 week ago)
Launch vehicle
FALCON 9
Launch site
Air Force Eastern Test Range (AFETR)
Object type
Payload
Rocket body
Debris
Shape & HBR
Unknown shape, 17.7 m
Radar Cross Section
RCS unknown

Expand to show TLE details & history
Last TLE update: 4 hours ago

TLE from 4 hours ago
0 STARLINK-35410
1 66024U 25232V   25299.16668980 -.01634975  00000-0 -75249-2 0  9999
2 66024  53.1553  13.9072 0001111  70.0317  67.1060 15.85750009  1906
Epoch: 2025-10-26T04:00Z
TLE epoch observation values (Epoch: 2025-10-26T04:00:01.998Z)
Latitude
33.08166°
Longitude
70.07515°
Altitude
316.147 km
Speed
7.723 km/s
True Right ascension
10h 59m 28s
True Declination
32° 54' 51"
Sunlit
Object was in daylight at epoch
Visualization orbit readout
Latitude
Unknown
Longitude
Unknown
Altitude
Unknown
Speed
Unknown
Apparent Right ascension
Unknown
Apparent Declination
Unknown
Sunlit
N/A
Visualization observer readout
Local Sidereal Time
03:48:54
Azimuth
Unknown
Elevation
Unknown
Doppler factor
Unknown
Orbital elements
Apogee altitude
315.22 km
Perigee altitude
313.733 km
Semi-major axis
6,692.614 km
Eccentricity
0.00011
Inclination
53.1553°
RAAN
13.9072°
Arg. of periapsis
70.0317°
True anomaly
67.11773°
Mean anomaly
67.106°
Eccentric anomaly
67.11186°
Mean motion
3.96414 °/min
Orbital period
90.81 mins
BSTAR
-0.0075249
Loading maneuver chart data...
Computing Atmospheric mass density...
Loading historical data...
Loading historical data...
Loading historical data...
Loading historical data...
Loading historical data...
Loading historical data...
Loading historical data...

Documentation

Showing up to 5 results
|